This demonstration page uses our WeatherBlox Daily Observations layout. Learn more.

Left ArrowRight Arrow

Hourly Observations for January 17, 2021

Temp ( °F °C ) Dew Point ( °F °C ) Humidity (%) Winds ( mph kmh ) Pressure ( in mb ) Visibility ( mi km ) Precip ( " mm )
12:53 am 00:53 Clear 19 -7.2 13 -10.6 77 77 WSW 7 11 30.16 1021 10 16 0.00 0.00
1:53 am 01:53 Clear 19 -7.2 13 -10.6 77 77 SW 7 11 30.13 1020 10 16 0.00 0.00
2:53 am 02:53 Clear 19 -7.2 13 -10.6 77 77 Calm 30.11 1020 10 16 0.00 0.00
3:53 am 03:53 Clear 20 -6.7 14 -10 78 78 WSW 6 9 30.07 1018 10 16 0.00 0.00
4:53 am 04:53 Clear 22 -5.6 16 -8.9 78 78 Calm 30.04 1017 10 16 0.00 0.00
5:53 am 05:53 Clear 23 -5 17 -8.3 78 78 WSW 5 7 30.04 1017 10 16 0.00 0.00
6:53 am 06:53 Mostly Cloudy 27 -2.8 19 -7.2 72 72 WSW 6 9 30.01 1016 10 16 0.00 0.00
7:53 am 07:53 Mostly Cloudy 30 -1.1 21 -6.1 69 69 WSW 8 13 29.98 1015 10 16 0.00 0.00
8:53 am 08:53 Cloudy 34 1.1 22 -5.6 61 61 WSW 12 19 29.95 1014 10 16 0.00 0.00
9:53 am 09:53 Cloudy 37 2.8 26 -3.3 65 65 SSW 16 26 29.92 1013 10 16 0.00 0.00
10:53 am 10:53 Cloudy 40 4.4 29 -1.7 65 65 SW 16 26 29.90 1012 10 16 0.00 0.00
11:53 am 11:53 Cloudy 40 4.4 27 -2.8 60 60 SW 16 26 29.88 1012 10 16 0.00 0.00
12:53 pm 12:53 Cloudy 40 4.4 27 -2.8 60 60 SW 12 19 29.87 1012 10 16 0.00 0.00
1:53 pm 13:53 Cloudy 44 6.7 27 -2.8 51 51 NW 20 31 29.87 1011 10 16 0.00 0.00
2:00 pm 14:00 Cloudy 43 6.1 27 -2.8 53 53 NW 22 35 29.84 1010 10 16 0.00 0.00
2:28 pm 14:28 Cloudy with Light Rain 38 3.3 31 -0.6 76 76 NW 10 17 29.89 1012 10 16 0.00 0.00
2:37 pm 14:37 Cloudy 38 3.3 31 -0.6 76 76 W 7 11 29.89 1012 10 16 0.00 0.00
2:53 pm 14:53 Cloudy 38 3.3 32 0 79 79 W 6 9 29.91 1013 10 16 0.00 0.00
3:53 pm 15:53 Cloudy 39 3.9 30 -1.1 70 70 WNW 15 24 29.93 1013 10 16 0.00 0.00
4:53 pm 16:53 Mostly Cloudy 37 2.8 31 -0.6 79 79 WNW 18 30 29.97 1015 10 16 0.00 0.00
5:53 pm 17:53 Mostly Clear 35 1.7 31 -0.6 85 85 W 13 20 30.00 1016 10 16 0.00 0.00
6:53 pm 18:53 Mostly Clear 33 0.6 30 -1.1 89 89 WSW 9 15 30.00 1016 10 16 0.00 0.00
7:53 pm 19:53 Partly Cloudy 35 1.7 30 -1.1 82 82 SW 13 20 29.99 1016 10 16 0.00 0.00
8:53 pm 20:53 Cloudy 35 1.7 29 -1.7 78 78 SW 15 24 29.99 1016 10 16 0.00 0.00
9:53 pm 21:53 Cloudy 34 1.1 27 -2.8 76 76 WNW 10 17 29.99 1016 10 16 0.00 0.00
10:53 pm 22:53 Mostly Clear 31 -0.6 25 -3.9 79 79 WSW 10 17 30.01 1016 10 16 0.00 0.00
11:53 pm 23:53 Windy with Snow Likely 34 1.1 28 -2.2 79 79 WNW 20 31 30.04 1017 7 11 0.00 0.00

Powered by AerisWeather